Погода в Обручевке

Россия / Челябинская область     52°45′58″N   59°12′42″E
темп.,
°C
ветер,
м/с
пор.,
м/с
влажн.,
%
обл.,
%
осадки,
мм/ч
давл.,
гПа
погр.,
м
27 февраля, сб
сб2723:00−26ююв2310048 0.0 102723
02:00−26ююв33100100 0.0 102542
05:00−25юв3599100 0.1 1023100
08:00−20юв51097100 0.1 1018385
11:00−13ююв71295100 1.3 1016697
14:00−10ююв81393100 1.4 1012809
17:00−9ююв71194100 2.3 1009712
20:00−9ююв61295100 0.8 1007462
28 февраля, вс
вс2823:00−7ю3896100 1.4 1006329
02:00−8ююв129798 0.3 100421
05:00−8всв229799 0.6 100322
08:00−6ссв3496100 1.1 1002106
11:00−6ссз349699 1.4 1001168
14:00−5с2396100 0.3 1001240
17:00−5с3596100 1.4 1002236
20:00−8с3595100 0.6 1004105
1 марта, пн
пн123:00−11ссз239596 0.8 100821
02:00−14с129779 0.1 101020
05:00−16св119889 0.1 101220
08:00−15всв129699 0.3 101421
11:00−12в229392 0.4 1015181
14:00−10в119097 0.1 1016276
17:00−10всв119499 0.3 1016143
20:00−13всв2296100 0.2 101723
2 марта, вт
вт223:00−14св129698 0.3 101821
02:00−15св119796 0.2 101820
05:00−16ссз119796 0.3 101920
08:00−17сз229798 0.1 101920
11:00−16зсз239293 0.1 1018112
14:00−14юз238912 0.0 1017258
17:00−15ю239427 0.0 101747
20:00−16юз45920 0.0 101756
3 марта, ср
ср323:00−18юз469039 0.0 1017105
02:00−19ююз599299 0.0 1016157
05:00−18ююз5109699 0.0 1015230
08:00−16ююз5996100 0.1 1013252
11:00−11ююз61193100 0.3 1011382
14:00−6ю71292100 0.1 1009629
17:00−5ю71292100 0.3 1008671
20:00−5ю61294100 0.2 1006544